Date,TemperatureHighF,TemperatureAvgF,TemperatureLowF,DewpointHighF,DewpointAvgF,DewpointLowF,HumidityHigh,HumidityAvg,HumidityLow,PressureMaxIn,PressureMinIn,WindSpeedMaxMPH,WindSpeedAvgMPH,GustSpeedMaxMPH,PrecipitationSumIn
2013-1-2,27,19,5,19,12,-1,82,72,62,30.28,29.99,9,4,19,0.00
2013-1-3,17,8,-3,11,0,-7,83,72,60,30.30,30.02,4,1,8,0.00
2013-1-4,38,29,17,25,20,11,87,69,57,30.02,29.88,16,4,26,0.02
2013-1-5,37,34,26,27,24,20,79,67,52,30.28,29.95,13,6,29,0.02
2013-1-6,41,33,27,31,26,20,87,78,65,30.21,29.94,5,2,11,0.07
2013-1-7,37,29,19,33,24,16,88,80,68,30.42,30.02,11,3,21,0.03
2013-1-8,39,24,12,28,19,9,89,80,64,30.41,30.31,2,1,5,0.01
2013-1-9,46,30,18,35,24,15,89,79,51,30.41,30.02,12,3,34,0.01
2013-1-10,44,38,31,32,28,25,78,66,57,30.61,30.16,20,6,44,0.01
2013-1-11,38,33,25,36,28,22,92,84,66,30.59,30.14,8,3,21,0.19
2013-1-12,45,40,37,44,39,35,96,94,91,30.19,30.12,5,1,10,0.10
2013-1-13,45,42,38,44,41,37,97,96,95,30.17,29.97,7,2,16,0.00
2013-1-14,47,42,35,45,36,26,96,79,59,30.36,29.89,15,6,27,0.05
2013-1-15,37,34,32,27,24,22,76,68,57,30.40,30.27,7,3,16,0.04
2013-1-16,33,31,29,31,28,24,93,88,72,30.27,29.86,5,1,9,0.03
2013-1-17,37,30,23,31,22,10,94,71,54,30.21,29.88,9,4,19,0.11
2013-1-18,23,19,13,12,6,-3,71,58,42,30.44,30.13,11,4,22,0.01
2013-1-19,43,34,22,28,21,12,65,59,51,30.29,29.81,10,5,21,0.02
2013-1-20,44,36,22,34,24,12,81,63,43,30.06,29.56,16,8,32,0.01
2013-1-21,27,23,20,19,14,11,80,69,55,30.10,29.84,9,3,17,0.01
2013-1-22,21,16,10,16,5,-2,81,63,42,30.16,29.82,12,6,25,0.00
2013-1-23,10,7,4,5,-4,-5,78,62,51,30.25,30.14,10,5,22,0.00
2013-1-24,14,7,-2,3,-3,-8,78,65,45,30.41,30.19,12,5,32,0.00
2013-1-25,18,11,5,11,2,-4,86,64,46,30.45,30.12,10,4,23,0.00
2013-1-26,20,14,8,10,6,4,87,72,53,30.37,30.11,10,4,20,0.00
2013-1-27,27,18,12,9,6,4,82,61,40,30.55,30.37,8,4,17,0.00
2013-1-28,26,22,19,23,16,6,93,77,53,30.51,29.99,6,2,12,0.00
2013-1-29,38,31,25,36,29,23,94,92,89,30.18,30.02,9,2,25,0.35
2013-1-30,55,48,38,54,46,36,96,95,93,30.04,29.36,13,6,22,0.25
2013-1-31,55,35,24,54,26,19,96,71,52,29.67,29.17,19,10,39,0.39
2013-2-1,26,24,19,20,13,8,82,62,52,30.18,29.67,16,8,29,0.01
2013-2-2,27,21,15,16,12,6,76,67,55,30.25,30.05,9,3,21,0.00
2013-2-3,28,23,15,18,15,11,86,71,56,30.07,29.81,5,1,8,0.00
2013-2-4,25,22,18,19,14,11,83,71,55,29.99,29.81,14,5,25,0.00
2013-2-5,28,23,17,18,13,10,82,66,53,30.05,29.92,4,1,9,0.00
2013-2-6,33,27,21,25,17,7,85,66,40,30.41,29.92,14,5,26,0.00
2013-2-7,24,20,14,10,7,3,70,57,47,30.58,30.40,6,3,11,0.00
2013-2-8,29,24,19,26,18,7,93,79,58,30.42,29.88,9,3,18,0.00
2013-2-9,27,21,14,22,14,3,93,76,48,30.40,29.88,11,6,28,0.01
2013-2-10,31,19,6,12,7,0,80,61,37,30.55,30.30,5,1,9,0.01
2013-2-11,44,36,18,39,31,8,92,82,60,30.30,29.67,13,5,27,0.04
2013-2-12,38,37,34,33,29,26,81,72,68,29.97,29.72,11,6,30,0.03
2013-2-13,40,34,31,28,25,21,82,68,50,29.93,29.77,4,1,13,0.00
2013-2-14,40,33,26,27,24,20,81,70,59,29.98,29.77,7,2,12,0.00
2013-2-15,47,39,32,31,28,25,81,65,47,30.04,29.90,11,4,25,0.00
2013-2-16,34,30,25,27,18,11,76,61,51,30.05,29.90,9,4,22,0.00
2013-2-17,25,20,14,12,6,0,62,53,41,29.97,29.72,17,9,33,0.00
2013-2-18,27,18,8,10,4,-2,64,53,41,30.24,29.97,16,8,30,0.00
2013-2-19,42,31,19,35,22,10,91,69,52,30.19,29.66,14,4,26,0.06
2013-2-20,33,28,25,27,17,12,79,63,46,29.92,29.70,16,8,34,0.06
2013-2-21,26,21,18,17,12,8,82,69,63,30.42,29.91,15,9,32,0.00
2013-2-22,38,30,20,26,20,15,81,68,56,30.47,30.27,7,3,17,0.00
2013-2-23,40,37,34,36,32,26,90,82,67,30.27,29.91,8,4,22,0.02
2013-2-24,40,35,33,34,31,26,94,84,70,30.01,29.82,11,4,21,0.06
2013-2-25,42,36,30,32,29,26,88,76,57,30.28,30.01,5,2,14,0.01
2013-2-26,45,37,28,33,28,24,89,72,53,30.35,30.07,8,2,16,0.00
2013-2-27,42,37,33,40,34,29,94,89,69,30.07,29.60,11,3,22,0.92
2013-2-28,44,38,35,38,35,33,95,87,70,29.65,29.59,7,1,13,0.21
2013-3-1,41,36,33,34,31,27,92,84,76,29.82,29.65,10,4,18,0.02
2013-3-2,34,30,25,27,24,20,84,76,67,29.82,29.76,11,6,24,0.01
2013-3-3,32,26,23,24,20,17,84,76,67,29.81,29.73,9,5,22,0.01
2013-3-4,31,28,26,24,22,20,81,76,70,29.95,29.79,14,8,36,0.01
2013-3-5,42,34,29,29,25,21,83,71,57,30.12,29.95,9,5,19,0.00
2013-3-6,42,36,29,33,28,25,87,74,61,30.16,30.07,13,6,24,0.00
2013-3-7,38,35,31,32,27,23,94,74,56,30.20,30.14,12,4,19,0.01
2013-3-8,43,34,29,35,30,27,95,85,63,30.34,30.15,6,2,12,0.38
2013-3-9,51,38,27,29,26,22,85,64,39,30.39,30.32,4,1,9,0.03
2013-3-10,53,41,27,34,28,24,89,63,40,30.39,30.22,10,4,22,0.01
2013-3-11,50,44,37,42,36,32,84,76,65,30.26,30.02,13,6,26,0.01
2013-3-12,53,48,39,51,45,33,94,88,80,30.03,29.73,13,7,27,0.49
2013-3-13,45,38,33,33,28,23,84,68,43,29.92,29.82,10,5,26,0.02
2013-3-14,33,27,24,25,16,10,75,61,52,29.95,29.86,15,8,35,0.00
2013-3-15,37,30,21,31,20,11,86,67,50,29.99,29.68,11,5,25,0.00
2013-3-16,35,30,24,25,18,14,77,61,47,29.95,29.79,8,4,16,0.00
2013-3-17,35,28,21,18,12,9,72,53,35,30.36,29.96,12,6,22,0.00
2013-3-18,38,28,17,27,12,5,91,54,30,30.49,30.14,7,2,18,0.00
2013-3-19,35,31,29,33,29,26,94,92,87,30.14,29.74,9,2,21,0.20
2013-3-20,36,30,23,25,22,19,86,72,57,29.85,29.79,13,5,23,0.20
2013-3-21,36,29,21,22,16,13,80,61,42,29.85,29.69,8,3,15,0.11
2013-3-22,35,29,23,26,21,14,83,70,60,29.86,29.72,12,4,29,0.03
2013-3-23,39,34,31,27,24,22,82,67,54,29.93,29.81,14,8,34,0.01
2013-3-24,43,37,32,27,25,23,71,62,47,29.94,29.80,9,4,20,0.00
2013-3-25,43,37,31,29,26,24,76,65,53,29.82,29.57,9,4,19,0.00
2013-3-26,47,41,36,30,26,21,76,59,35,29.88,29.65,10,3,18,0.00
2013-3-27,51,42,36,33,29,22,73,62,48,29.99,29.86,14,6,26,0.00
2013-3-28,48,42,37,37,34,31,84,73,59,30.14,29.98,9,5,16,0.00
2013-3-29,50,44,39,35,33,31,75,66,54,30.16,30.10,12,5,21,0.00
2013-3-30,54,46,37,33,29,24,76,54,35,30.17,30.09,13,4,22,0.00
2013-3-31,56,44,30,40,29,-100,89,61,37,30.15,29.75,16,4,28,0.11
2013-4-1,49,41,32,44,33,17,94,76,44,29.91,29.60,15,6,33,0.18
2013-4-2,36,31,26,25,21,15,92,65,47,30.05,29.90,19,8,39,0.01
2013-4-3,39,33,27,24,19,15,79,59,38,30.30,30.03,15,8,33,0.01
2013-4-4,54,42,30,26,23,19,73,51,32,30.38,30.00,10,5,23,0.00
2013-4-5,51,43,35,33,27,22,85,55,35,30.03,29.83,13,5,27,0.00
2013-4-6,46,38,29,31,15,8,78,41,25,30.33,30.03,12,5,21,0.00
2013-4-7,59,46,31,41,29,19,70,53,32,30.29,29.88,18,6,35,0.01
2013-4-8,61,52,44,41,37,35,73,58,40,30.18,29.97,10,4,20,0.01
2013-4-9,58,55,52,49,45,39,79,69,56,30.09,29.85,13,5,26,0.06
2013-4-10,58,51,46,51,47,44,95,89,73,30.03,29.89,9,2,19,0.91
2013-4-11,46,40,33,44,32,24,94,75,50,30.19,29.94,11,5,20,0.45
2013-4-12,41,36,33,37,33,27,94,90,74,30.17,29.81,7,2,16,0.68
2013-4-13,51,43,37,41,38,35,95,83,65,29.98,29.85,10,2,20,0.05
2013-4-14,47,42,36,38,33,27,89,70,48,30.28,29.98,11,4,20,0.05
2013-4-15,60,46,30,39,32,27,89,63,41,30.40,30.26,13,3,25,0.01
2013-4-16,60,53,46,56,44,33,89,72,55,30.33,30.05,16,8,29,0.29
2013-4-17,64,53,42,43,37,32,78,57,32,30.36,30.18,10,5,19,0.03
2013-4-18,65,53,39,49,38,32,82,59,40,30.38,30.05,17,6,37,0.00
2013-4-19,71,61,46,63,56,40,92,83,74,30.05,29.55,19,9,32,0.60
2013-4-20,52,45,36,41,34,23,89,67,44,30.36,29.77,13,6,29,0.72
2013-4-21,52,41,31,25,22,20,67,49,32,30.69,30.36,10,4,20,0.02
2013-4-22,59,46,34,31,26,23,66,47,26,30.74,30.53,11,3,21,0.00
2013-4-23,55,46,34,41,34,27,77,63,55,30.56,30.17,5,2,12,0.00
2013-4-24,72,55,36,52,43,33,92,67,45,30.18,29.71,13,4,25,0.00
2013-4-25,63,49,41,52,34,30,84,59,36,30.30,29.75,14,6,30,0.07
2013-4-26,57,48,38,38,33,31,80,58,38,30.48,30.30,9,4,19,0.00
2013-4-27,65,53,36,38,33,21,81,51,19,30.49,30.31,6,2,12,0.00
2013-4-28,74,59,41,43,38,-100,86,52,29,30.35,30.14,11,2,21,0.00
2013-4-29,60,56,53,49,42,33,83,60,42,30.26,30.19,9,5,22,0.02
2013-4-30,73,61,50,49,45,37,87,60,34,30.33,30.25,8,3,17,0.02
2013-5-1,77,64,47,42,37,32,69,38,23,30.48,30.32,8,2,14,0.01
2013-5-2,82,67,48,48,43,38,79,47,25,30.50,30.29,7,2,19,0.00
2013-5-3,73,63,53,44,38,32,53,40,27,30.52,30.34,8,4,18,0.00
2013-5-4,77,64,47,47,44,35,86,51,31,30.39,30.20,7,2,18,0.00
2013-5-5,76,63,48,46,40,34,83,48,23,30.32,30.17,7,3,14,0.00
2013-5-6,76,62,47,50,41,32,83,51,21,30.29,30.11,7,3,14,0.00
2013-5-7,81,68,53,56,52,47,87,59,31,30.20,30.07,9,2,16,0.00
2013-5-8,72,65,58,63,59,54,94,80,62,30.18,30.02,10,2,22,0.23
2013-5-9,73,63,55,60,55,53,95,76,51,30.04,29.90,9,2,13,0.05
2013-5-10,78,67,55,58,54,-100,91,68,48,30.02,29.85,8,2,16,0.01
2013-5-11,69,63,57,64,58,49,94,83,67,29.87,29.70,8,4,20,0.17
2013-5-12,60,53,45,49,40,-100,84,64,34,29.91,29.72,13,5,28,0.03
2013-5-13,51,45,42,34,31,28,69,57,47,30.13,29.91,12,5,27,0.00
2013-5-14,59,49,39,36,33,31,79,56,37,30.16,30.05,7,3,15,0.00
2013-5-15,65,51,36,53,42,31,90,71,50,30.09,29.63,12,3,28,0.09
2013-5-16,79,61,50,51,24,-100,79,45,26,29.89,29.72,15,6,35,0.07
2013-5-17,72,60,49,46,36,-100,72,53,32,30.26,29.91,7,3,17,0.00
2013-5-18,75,62,46,50,46,41,86,59,33,30.35,30.24,7,2,17,0.00
2013-5-19,59,57,50,57,53,47,95,88,74,30.33,30.19,8,3,20,0.09
2013-5-20,83,69,57,67,61,55,94,78,55,30.19,29.96,6,2,13,0.02
2013-5-21,91,74,63,70,66,61,96,76,48,30.00,29.82,8,2,22,0.39
2013-5-22,77,69,64,72,66,62,97,91,75,29.92,29.81,9,4,19,2.70
2013-5-23,78,70,67,70,66,62,93,86,70,29.86,29.77,11,4,17,0.02
2013-5-24,66,52,44,64,50,42,95,92,86,30.06,29.70,10,4,22,0.64
2013-5-25,47,45,44,44,43,41,95,92,85,30.05,29.97,13,7,25,1.14
2013-5-26,59,52,45,45,42,40,85,70,52,30.17,29.92,12,6,27,0.04
2013-5-27,71,59,47,44,40,37,78,52,33,30.25,30.15,11,5,24,0.01
2013-5-28,71,60,45,56,45,38,86,61,37,30.27,30.16,9,3,17,0.00
2013-5-29,79,65,58,70,61,55,96,88,71,30.16,29.95,8,4,16,0.41
2013-5-30,88,80,62,71,68,61,97,68,51,30.15,30.09,8,3,18,0.74
2013-5-31,94,80,66,72,68,64,94,69,42,30.15,29.96,7,2,13,0.01
2013-6-1,93,82,69,72,68,64,85,65,42,30.01,29.85,11,3,17,0.00
2013-6-2,86,76,69,74,68,-100,94,81,56,29.88,29.73,11,4,19,0.88
2013-6-3,69,64,56,67,54,39,92,70,44,29.98,29.85,12,5,22,0.03
2013-6-4,71,60,50,49,45,42,76,58,42,30.17,29.98,11,6,26,0.00
2013-6-5,76,65,51,52,47,42,77,54,36,30.26,30.13,7,2,12,0.00
2013-6-6,72,63,56,57,52,47,94,68,49,30.19,30.08,10,3,22,0.65
2013-6-7,57,56,55,56,55,54,96,95,94,30.08,29.85,7,3,17,1.30
2013-6-8,70,61,54,61,57,53,97,86,71,30.09,29.78,8,4,19,0.32
2013-6-9,79,68,57,60,57,54,91,69,49,30.22,30.09,11,3,19,0.03
2013-6-10,66,62,56,63,59,53,96,90,72,30.22,29.93,5,1,10,0.58
2013-6-11,67,62,59,66,60,56,97,93,82,29.93,29.61,11,3,26,1.76
2013-6-12,74,65,58,58,55,52,86,71,48,29.89,29.70,12,5,24,0.01
2013-6-13,60,56,54,57,55,52,97,95,86,29.88,29.72,8,2,13,1.39
2013-6-14,76,64,55,64,58,54,96,82,53,29.91,29.74,8,2,17,0.15
2013-6-15,77,68,56,58,52,45,90,60,37,30.03,29.92,12,4,25,0.01
2013-6-16,71,64,57,64,56,45,88,77,50,30.01,29.75,8,2,18,0.05
2013-6-17,84,70,60,66,62,59,97,78,49,29.96,29.82,15,2,27,0.40
2013-6-18,65,61,57,60,55,52,90,80,70,30.01,29.94,9,2,16,0.02
2013-6-19,74,64,50,52,49,45,91,62,39,30.22,30.01,7,2,12,0.00
2013-6-20,81,64,51,55,50,48,89,65,40,30.32,30.21,5,1,10,0.00
2013-6-22,85,82,74,69,67,64,71,61,54,30.25,30.10,8,5,17,0.00
2013-6-23,92,80,69,76,68,62,81,69,44,30.16,30.01,11,3,22,0.00
2013-6-24,94,77,68,76,69,65,93,77,49,30.07,29.96,12,2,29,0.19
2013-6-25,91,74,66,75,69,65,96,85,58,30.03,29.81,8,2,18,0.33
2013-6-26,84,76,71,72,69,67,90,81,65,29.86,29.80,6,2,12,0.10
2013-6-27,88,76,67,72,69,65,95,79,51,29.85,29.66,8,2,15,0.04
2013-6-28,80,74,68,71,68,65,96,82,64,29.66,29.39,15,6,28,1.02
2013-6-29,83,73,65,72,66,63,94,80,54,29.72,29.52,7,2,15,0.21
2013-6-30,86,75,66,71,68,63,93,80,58,29.95,29.72,11,2,22,0.01
2013-7-1,75,71,68,72,68,67,95,92,86,30.07,29.95,7,2,16,0.15
2013-7-2,83,72,65,77,70,64,97,92,77,30.16,30.06,6,2,17,0.52
2013-7-3,89,80,72,76,73,70,96,81,59,30.23,30.15,10,3,18,0.03
2013-7-4,93,83,72,77,73,70,95,75,53,30.25,30.11,13,3,19,0.00
2013-7-5,93,83,73,79,74,71,94,76,54,30.21,30.06,9,2,19,0.06
2013-7-6,89,80,73,73,71,67,92,75,51,30.16,30.06,9,3,16,0.06
2013-7-7,94,79,71,78,72,67,93,81,57,30.10,29.95,10,2,22,0.23
2013-7-8,86,76,72,72,69,-100,95,81,57,30.07,29.98,10,2,15,0.12
2013-7-9,88,79,71,73,71,69,95,78,58,30.12,30.01,7,2,14,0.00
2013-7-10,83,76,73,75,70,-100,94,86,74,30.03,29.81,9,4,18,0.78
2013-7-11,84,77,71,74,66,61,94,72,50,30.04,29.80,9,4,21,0.01
2013-7-12,83,73,64,66,62,59,84,71,54,30.22,30.03,6,3,14,0.01
2013-7-13,78,73,66,72,66,60,89,78,67,30.33,30.22,3,1,8,0.01
2013-7-14,92,81,69,74,72,68,97,76,53,30.37,30.26,9,2,14,0.01
2013-7-15,93,82,73,74,71,67,91,71,50,30.29,30.18,9,3,21,0.00
2013-7-16,94,83,71,74,70,66,86,66,43,30.28,30.18,6,2,13,0.00
2013-7-17,96,85,73,75,72,69,87,66,43,30.26,30.06,9,2,15,0.00
2013-7-18,95,86,79,77,74,72,86,67,49,30.09,29.98,11,3,20,0.00
2013-7-19,97,86,76,76,72,67,88,65,46,29.98,29.76,14,6,30,0.00
2013-7-20,87,78,72,71,66,-100,82,68,54,29.89,29.75,10,4,23,0.02
2013-7-21,86,75,65,67,63,60,88,67,46,30.03,29.89,10,2,19,0.02
2013-7-22,86,73,62,73,64,58,92,74,49,30.06,29.86,7,3,15,0.29
2013-7-23,85,74,69,72,70,67,97,86,62,29.86,29.61,10,2,18,0.68
2013-7-24,76,71,62,68,60,51,85,69,53,30.08,29.65,12,6,23,0.01
2013-7-25,73,63,53,57,52,49,89,69,48,30.16,30.08,10,3,16,0.00
2013-7-26,79,68,60,62,58,54,84,72,54,30.13,30.03,7,2,12,0.00
2013-7-27,85,73,57,65,61,55,93,70,40,30.09,29.97,9,3,19,0.00
2013-7-28,74,70,67,69,66,63,94,87,76,30.02,29.96,9,4,21,0.21
2013-7-29,82,72,63,67,61,56,95,73,43,30.15,29.98,11,3,20,0.01
2013-7-30,80,69,58,61,58,55,91,69,46,30.22,30.12,8,3,17,0.00
2013-7-31,82,72,59,63,59,55,91,66,47,30.21,30.06,7,2,13,0.00
2013-8-1,74,68,61,67,64,59,93,85,74,30.06,29.87,12,4,25,0.17
2013-8-2,82,72,64,65,62,57,94,73,47,29.92,29.85,9,3,18,0.01
2013-8-3,81,71,64,63,58,52,89,64,42,29.92,29.84,12,4,25,0.00
2013-8-4,77,68,60,63,57,53,84,68,49,30.01,29.88,16,4,30,0.06
2013-8-5,78,67,56,57,52,48,87,63,37,30.11,30.00,9,4,16,0.01
2013-8-6,81,68,54,59,54,51,91,64,41,30.17,30.09,9,2,14,0.00
2013-8-7,78,71,64,65,62,58,84,74,64,30.17,30.06,12,5,23,0.00
2013-8-8,85,75,69,73,69,65,92,83,66,30.07,29.99,9,4,18,0.09
2013-8-9,79,74,72,74,71,67,96,90,83,30.00,29.83,8,3,14,0.77
2013-8-10,78,71,63,67,58,49,87,64,40,30.11,29.91,12,6,27,0.01
2013-8-11,79,68,57,58,55,51,85,64,46,30.16,30.05,8,2,16,0.00
2013-8-12,82,70,60,65,59,56,89,70,48,30.09,29.94,5,1,11,0.00
2013-8-13,74,67,64,68,62,-100,96,87,76,29.95,29.71,5,2,15,1.75
2013-8-14,69,61,56,58,50,-100,85,73,62,30.05,29.81,12,5,23,0.73
2013-8-15,74,59,56,58,39,-100,88,66,47,30.17,30.06,9,2,18,0.00
2013-8-16,79,66,55,59,52,-100,90,66,45,30.24,30.16,6,2,15,0.00
2013-8-17,83,69,57,61,58,54,92,69,43,30.35,30.24,6,1,11,0.00
2013-8-18,77,67,60,65,60,-100,93,80,62,30.33,30.14,3,1,7,0.00
2013-8-19,83,68,63,64,48,-100,91,70,43,30.15,30.03,8,2,15,0.00
2013-8-20,84,73,61,65,59,-100,90,68,45,30.16,30.07,10,2,19,0.00
2013-8-21,87,75,63,69,64,60,92,70,47,30.22,30.07,6,1,13,0.00
2013-8-22,89,77,66,72,66,61,93,70,42,30.09,29.87,8,3,20,0.00
2013-8-23,78,70,63,68,60,54,90,71,48,30.21,29.93,9,4,16,0.01
2013-8-24,80,67,55,57,54,52,93,67,41,30.38,30.22,5,1,10,0.01
2013-8-25,84,69,55,62,55,-100,90,67,40,30.43,30.20,7,2,17,0.00
2013-8-26,80,70,65,69,65,60,95,84,68,30.21,29.93,7,2,18,0.15
2013-8-27,83,72,67,70,68,66,97,88,62,29.97,29.90,6,2,13,0.27
2013-8-28,88,83,73,73,69,68,85,65,52,29.96,29.87,5,2,8,0.00
2013-8-29,83,74,66,69,67,64,95,79,61,30.09,29.96,4,1,12,0.00
2013-8-30,70,68,67,67,65,64,94,91,85,30.04,30.01,5,1,12,0.00
2013-9-3,76,69,64,64,60,57,96,74,54,29.91,29.81,9,4,18,0.34
2013-9-4,79,70,62,60,58,56,88,69,46,30.01,29.91,10,4,19,0.01
2013-9-5,71,65,54,61,51,42,87,64,36,30.24,29.93,10,4,21,0.01
2013-9-6,70,59,46,48,45,38,88,63,38,30.32,30.16,6,2,14,0.01
2013-9-7,75,62,50,59,53,47,92,75,56,30.16,29.91,6,1,11,0.00
2013-9-8,71,64,55,62,50,-100,90,65,38,30.18,29.84,12,4,22,0.00
2013-9-9,70,59,46,55,49,43,88,69,51,30.28,30.12,6,3,14,0.00
2013-9-10,79,69,61,74,65,55,96,88,79,30.13,30.02,7,2,19,0.55
2013-9-11,96,78,69,80,72,68,98,84,47,30.11,29.96,16,2,36,0.21
2013-9-12,84,72,69,74,69,67,96,90,72,30.01,29.72,9,2,22,0.72
2013-9-13,71,64,55,67,59,48,94,86,75,29.93,29.68,10,3,21,0.39
2013-9-14,64,56,52,50,48,45,86,75,59,30.15,29.92,8,4,19,0.01
2013-9-15,70,56,45,56,47,-100,91,77,58,30.23,30.09,6,2,12,0.00
2013-9-16,65,56,46,55,50,42,92,82,68,30.37,30.08,11,3,17,0.26
2013-9-17,64,52,41,47,42,39,93,73,45,30.53,30.37,5,2,13,0.17
2013-9-18,55,45,42,46,43,40,95,92,89,30.39,30.20,2,0,4,0.01
2013-9-19,77,61,47,58,52,45,95,74,44,30.22,30.08,5,1,10,0.01
2013-9-20,79,64,51,59,55,49,96,74,45,30.14,29.98,7,2,16,0.00
2013-9-21,74,66,59,65,60,55,92,81,62,30.00,29.67,14,7,30,0.25
2013-9-22,64,57,52,61,48,-100,93,75,56,29.97,29.65,10,5,22,0.36
2013-9-23,61,52,44,45,42,40,89,72,54,30.13,29.97,10,4,20,0.01
2013-9-24,67,53,43,49,44,39,90,73,48,30.13,29.92,9,4,18,0.00
2013-9-25,72,58,45,54,49,42,93,74,51,30.03,29.93,4,1,9,0.00
2013-9-26,65,57,49,52,49,46,92,76,58,30.20,30.03,8,2,14,0.00
2013-9-27,60,54,46,53,49,44,94,84,73,30.34,30.19,5,1,11,0.00
2013-9-28,74,59,45,56,51,43,96,78,45,30.42,30.28,5,1,9,0.01
2013-9-29,74,59,47,56,49,-100,95,74,36,30.28,30.10,4,1,9,0.01
2013-9-30,74,60,49,56,52,47,95,77,48,30.14,30.01,5,1,8,0.01
2013-10-1,69,63,55,57,56,52,89,77,65,30.03,29.97,2,1,4,0.00
2013-10-2,77,65,54,64,57,52,94,78,58,30.06,29.95,9,2,22,0.00
2013-10-3,75,64,51,57,54,48,92,70,47,30.17,30.07,7,1,12,0.00
2013-10-4,61,59,56,59,56,52,96,90,82,30.14,30.08,5,1,7,0.34
2013-10-5,62,59,57,56,55,53,91,86,75,30.16,30.10,4,1,8,0.01
2013-10-6,58,54,52,53,51,50,95,89,81,30.15,30.13,3,2,8,0.24
2013-10-7,74,65,57,68,60,47,94,86,69,29.99,29.67,14,6,44,0.72
2013-10-8,65,57,49,48,45,41,85,66,48,30.41,29.99,8,3,16,0.15
2013-10-9,65,52,41,47,43,39,99,75,41,30.52,30.38,4,1,7,0.00
2013-10-10,61,52,41,51,46,39,95,80,59,30.39,30.22,4,1,6,0.00
2013-10-11,70,58,50,52,49,45,93,75,40,30.22,30.13,5,1,9,0.00
2013-10-12,74,58,44,55,49,42,94,76,51,30.38,30.19,8,2,17,0.00
2013-10-13,68,59,54,52,49,-100,84,71,53,30.45,30.35,7,3,13,0.00
2013-10-14,68,58,51,56,52,47,88,80,64,30.39,30.27,6,2,12,0.00
2013-10-15,70,61,57,59,56,54,92,84,67,30.30,30.14,5,1,11,0.00
2013-10-16,63,59,55,56,51,43,88,74,59,30.14,29.89,7,3,15,0.00
2013-10-17,69,62,57,56,53,50,91,73,52,29.93,29.66,9,3,16,0.03
2013-10-18,64,57,49,54,46,39,94,70,39,29.98,29.63,12,4,23,0.06
2013-10-19,65,53,42,48,44,39,91,72,46,29.98,29.73,9,3,22,0.02
2013-10-20,59,52,46,49,38,-100,79,61,44,30.06,29.72,8,4,21,0.02
2013-10-21,66,55,45,45,42,39,84,63,44,30.14,29.94,10,3,19,0.00
2013-10-22,55,51,42,49,42,35,85,72,58,29.94,29.80,9,4,22,0.02
2013-10-23,54,46,39,38,35,34,84,68,52,29.86,29.66,7,2,13,0.02
2013-10-24,51,43,36,37,34,29,86,70,45,29.97,29.76,15,6,28,0.00
2013-10-25,49,44,40,36,34,31,86,68,55,30.19,29.97,13,4,23,0.00
2013-10-26,53,45,36,36,33,28,86,64,39,30.19,29.86,14,4,22,0.00
2013-10-27,50,45,38,37,34,-100,84,66,51,30.12,29.83,11,4,27,0.00
2013-10-28,56,43,35,39,31,-100,87,67,40,30.41,30.10,10,3,23,0.00
2013-10-29,47,37,28,28,26,23,85,65,40,30.51,30.39,6,1,12,0.00
2013-10-30,52,41,35,42,34,26,89,76,63,30.39,30.23,3,1,5,0.01
2013-10-31,59,44,34,58,42,32,98,93,89,30.27,29.70,10,3,19,0.28
2013-11-1,71,63,54,62,53,43,95,72,39,29.73,29.41,20,8,28,0.22
2013-11-2,59,49,41,47,43,37,91,78,60,29.87,29.66,9,2,20,0.03
2013-11-3,43,38,30,37,26,-100,86,66,50,30.52,29.88,9,4,16,0.00
2013-11-4,41,33,27,22,20,17,77,59,41,30.72,30.52,10,2,22,0.00
2013-11-5,52,40,28,38,30,21,81,68,56,30.70,30.49,7,2,14,0.00
2013-11-6,61,51,43,47,43,37,86,74,60,30.49,29.98,9,4,21,0.00
2013-11-7,56,49,41,51,43,35,91,79,67,29.97,29.81,11,5,26,0.19
2013-11-8,44,40,35,35,32,28,85,74,54,30.19,29.92,15,6,27,0.01
2013-11-9,43,37,31,33,28,-100,80,70,62,30.27,29.96,5,2,9,0.00
2013-11-10,50,44,40,41,36,31,85,72,58,30.02,29.80,12,4,27,0.04
2013-11-11,48,44,38,36,31,28,72,61,51,30.18,29.95,10,5,21,0.03
2013-11-12,43,32,28,36,23,17,86,70,58,30.32,29.98,11,6,21,0.01
2013-11-13,36,30,24,21,17,13,66,59,44,30.40,30.19,9,5,19,0.00
2013-11-14,52,38,26,28,24,20,82,58,34,30.19,30.10,11,2,20,0.00
2013-11-15,56,42,28,30,26,22,82,56,30,30.22,30.13,5,1,9,0.00
2013-11-16,60,47,39,40,32,-100,72,59,45,30.34,30.22,4,1,8,0.00
2013-11-17,60,52,40,57,48,34,95,87,65,30.27,29.71,13,5,30,0.01
2013-11-18,61,55,41,58,43,32,91,66,42,29.80,29.50,17,9,31,0.28
2013-11-19,41,36,31,31,24,20,78,63,59,30.42,29.80,13,7,28,0.01
2013-11-20,38,31,24,20,18,16,75,60,43,30.67,30.42,6,2,12,0.00
2013-11-21,45,34,21,32,24,18,89,69,45,30.66,30.40,7,1,12,0.00
2013-11-22,48,41,36,44,37,30,93,86,72,30.39,29.92,14,2,24,0.09
2013-11-23,45,34,24,38,25,-100,88,71,47,30.07,29.88,14,8,31,0.01
2013-11-24,25,20,15,16,8,5,79,59,43,30.33,29.95,15,8,31,0.00
2013-11-25,32,25,15,18,12,5,66,58,52,30.45,30.24,7,3,15,0.00
2013-11-26,34,32,28,32,27,16,93,82,52,30.31,29.98,6,2,12,0.19
2013-11-27,38,36,32,37,33,27,96,91,80,29.96,29.44,14,5,25,1.05
2013-11-28,32,26,22,27,16,11,80,66,50,30.48,29.66,17,7,35,0.01
2013-12-2,39,35,32,34,31,29,90,85,81,30.05,29.93,2,0,4,0.00
2013-12-3,42,35,30,36,30,27,92,83,70,30.04,29.95,6,1,15,0.00
2013-12-4,43,34,28,33,28,25,91,80,60,30.19,30.04,3,1,7,0.00
2013-12-5,54,44,30,51,41,26,94,89,83,30.18,29.91,9,4,21,0.00
2013-12-6,50,40,33,47,35,29,92,83,74,30.22,29.94,10,5,22,0.38
2013-12-7,36,33,29,31,25,-100,92,75,64,30.53,30.19,10,5,20,0.02
2013-12-8,31,29,27,23,21,20,80,72,67,30.63,30.47,6,2,13,0.01
2013-12-9,38,32,27,35,29,21,93,86,69,30.46,29.92,11,4,22,0.03
2013-12-10,37,31,24,29,23,17,86,72,62,30.03,29.88,9,4,22,0.02
2013-12-11,30,26,24,22,17,10,87,67,52,30.23,30.04,10,5,22,0.00
2013-12-12,24,20,15,18,9,3,80,62,44,30.37,30.07,8,4,18,0.00
2013-12-13,28,23,15,22,13,6,85,65,57,30.44,29.99,11,5,26,0.01
2013-12-14,15,10,7,9,3,-100,88,75,65,30.62,30.11,7,3,11,0.01
2013-12-15,29,23,12,26,20,9,92,89,81,30.06,29.59,12,2,20,0.00
2013-12-16,27,20,11,23,12,5,86,71,58,30.26,29.77,11,5,22,0.00
2013-12-17,13,6,-2,10,3,-6,87,84,77,30.27,30.04,3,1,6,0.00
2013-12-18,30,21,13,23,17,10,88,83,74,30.09,30.00,5,2,9,0.00
2013-12-19,41,33,26,28,25,22,84,72,59,30.12,29.98,5,2,14,0.13
2013-12-20,42,37,33,36,32,26,92,82,68,30.11,29.93,6,1,12,0.24
2013-12-21,45,41,37,42,37,-100,95,91,84,29.94,29.85,7,1,14,0.23
2013-12-22,48,37,31,47,36,30,97,95,91,29.97,29.67,8,2,17,0.13
2013-12-23,48,41,34,45,38,28,95,88,72,30.22,29.96,9,2,26,0.16
2013-12-24,34,27,18,27,19,10,78,70,62,30.36,30.16,10,5,23,0.01
2013-12-25,21,16,10,11,5,2,70,63,53,30.58,30.36,11,4,26,0.00
2013-12-26,32,28,22,27,20,11,87,74,58,30.41,30.13,10,4,17,0.00
2013-12-27,35,31,26,26,22,19,77,71,64,30.32,30.23,8,3,16,0.00
2013-12-28,45,34,26,32,26,-100,87,74,58,30.24,30.05,6,2,12,0.00
2013-12-29,38,32,28,34,30,25,95,90,80,30.07,29.63,6,1,10,0.52
2013-12-30,39,26,14,37,18,6,95,74,60,30.25,29.68,19,6,35,0.17
2013-12-31,24,17,10,20,10,4,87,75,56,30.24,30.04,12,3,25,0.01
2014-1-1,24,20,16,15,12,7,83,71,58,30.40,30.23,7,2,11,0.00
2014-1-2,17,4,-1,13,1,-5,95,85,84,30.38,29.96,9,5,17,0.00